GFSCGP_con_mucape_117.txt.gz
CAPE
0 0 0 0 0 0 0 0 0 0 0 0 0 0 0 0 0 0 0 6 372 693 858 1040 1413 1454 1273 1799 1678 1983 1898 2152 1812 1304 1088 1006 845 891 907 1086 1466 1809 1518 1625
0 0 0 0 0 0 0 0 0 0 0 0 0 0 0 0 0 0 0 0 0 120 753 946 1055 1507 1575 1711 1866 1828 2018 2115 1920 1608 1358 1136 1105 780 687 718 998 1330 1605 1563
0 0 0 0 0 0 0 0 0 0 0 0 0 0 0 0 0 0 0 0 0 0 34 399 719 913 1265 1866 2200 2198 2292 2177 2001 1810 1658 1416 1167 1009 969 916 1005 1187 1348 1465
0 0 0 0 0 0 0 0 0 0 0 0 0 0 0 0 0 0 0 0 0 0 1 59 171 460 678 886 1676 2216 2235 2422 2223 2116 1945 1902 1522 1296 1193 1202 1160 1063 1471 1522
0 0 0 0 0 0 0 0 0 0 0 0 0 0 0 0 0 0 0 0 12 31 49 45 46 169 326 591 1049 1716 2625 2660 2368 2281 2144 1965 1991 1758 1676 1489 2064 1988 1832 1495
0 0 0 0 0 0 0 0 0 0 0 0 0 0 0 0 0 0 0 0 0 23 68 288 267 82 218 260 455 1010 1852 2650 2767 2540 2312 2291 2244 2236 2001 2110 1941 1795 1653 1437
0 0 0 0 0 0 0 0 0 0 0 0 0 0 0 0 0 0 0 0 18 105 105 251 662 586 722 725 448 782 1601 1920 2642 2641 2510 2332 2398 2504 2610 2655 2182 2060 1755 1785
0 0 0 0 0 0 0 0 0 0 0 0 0 0 0 0 0 0 0 0 140 255 568 730 872 690 803 830 561 617 1249 1960 2066 2376 2627 2449 2390 2315 2417 2622 2213 1818 1901 2095
0 0 0 0 0 0 0 0 0 0 0 0 0 0 0 0 0 0 4 18 60 10 240 672 544 500 684 827 538 622 1302 2059 1860 2170 2521 2645 2552 2449 2333 2556 2591 1970 1635 1972
0 0 0 0 0 0 0 0 0 0 0 0 0 0 0 0 0 0 53 78 83 29 151 556 404 511 485 752 630 677 1308 1631 1925 2091 2234 2339 2510 2574 2414 2539 2259 2317 2308 1821
0 0 0 0 0 0 0 0 0 0 0 0 0 0 0 0 0 8 82 111 162 55 168 498 397 498 393 561 893 858 1119 1189 1544 1734 2292 2471 2127 2330 2205 2306 2012 1890 1949 1781
0 0 0 0 0 0 0 0 0 0 0 0 0 0 0 0 0 0 14 92 111 106 117 287 516 522 424 502 798 603 776 982 1239 1368 1617 1989 1856 2122 2047 2233 2259 1724 1828 1634
0 0 0 0 0 0 0 0 0 0 0 0 0 0 0 0 0 0 48 57 335 502 654 725 777 657 540 509 795 785 901 944 935 996 979 1469 1677 1679 1936 2185 1674 2053 2030 1885
0 0 0 0 0 0 0 0 0 0 0 0 0 0 0 0 4 121 167 363 590 708 676 837 1005 827 665 457 557 747 709 988 1004 683 725 802 1009 898 961 2203 2316 1611 1907 1914
0 0 0 0 0 0 0 0 0 0 0 0 0 0 0 11 135 87 182 387 439 471 541 690 830 1072 905 819 645 779 738 885 921 597 1014 706 1012 1224 1701 1821 2138 1877 1598 1727
0 0 0 0 0 0 0 0 0 0 0 0 0 0 22 91 79 196 186 151 236 359 457 635 828 985 910 697 724 502 777 890 885 779 617 620 1002 1456 1628 1432 1442 1708 1389 1401
0 0 0 0 0 0 0 0 0 0 0 6 13 29 25 106 168 239 141 87 147 314 579 626 684 880 782 516 541 716 635 730 909 615 425 489 805 801 1019 1187 1354 1087 1080 1198
0 0 0 0 0 0 0 0 8 25 36 70 98 91 99 167 237 128 176 237 338 481 375 320 444 605 670 487 486 254 255 388 299 366 551 375 125 94 149 356 501 342 314 692
0 0 0 0 0 0 0 3 39 43 48 31 77 70 39 86 12 107 110 265 454 365 356 384 530 501 217 163 274 116 118 141 116 76 166 274 234 73 6 42 17 68 65 45
0 0 0 0 1 0 7 54 81 58 28 48 182 127 137 135 40 50 243 219 290 464 421 370 411 119 56 17 9 53 10 27 25 3 3 10 41 84 42 40 34 48 36 51
0 43 54 51 30 20 16 65 127 57 27 73 160 275 319 154 205 372 314 426 528 483 356 464 272 105 36 4 0 13 40 31 8 26 38 19 1 0 4 32 21 27 116 169
8 70 105 78 97 18 42 162 127 119 216 139 200 342 438 519 565 523 569 704 696 708 445 333 71 30 0 7 100 88 127 48 5 3 1 0 12 11 0 36 91 83 146 151
60 78 58 98 30 40 93 279 243 272 250 348 362 541 688 689 557 585 621 605 675 568 555 50 0 1 59 144 208 203 41 31 0 0 0 0 0 2 19 11 166 94 129 139
32 18 40 13 8 1 21 152 177 220 398 473 674 791 625 697 715 456 576 752 837 674 552 104 43 59 52 74 83 70 3 0 0 0 0 0 0 0 11 2 0 65 94 42
0 5 4 14 1 53 108 164 258 569 809 740 593 656 734 780 499 639 423 396 521 571 605 363 190 73 64 40 52 38 19 4 0 0 0 0 0 0 0 0 0 0 0 0
0 0 1 0 0 16 84 216 463 704 524 580 745 818 786 631 616 618 406 388 334 482 488 223 170 85 56 78 168 96 40 14 0 0 0 0 0 0 0 0 0 0 0 0

GFSCGP_con_mucape_120.txt.gz
CAPE
0 0 0 0 0 0 0 0 0 0 0 0 0 0 0 0 0 0 24 327 669 932 1250 1704 1867 1926 1964 2197 2294 2208 2293 2781 2574 2232 1963 1794 1520 1447 1187 1004 1333 1645 1609 1779
0 0 0 0 0 0 0 0 0 0 0 0 0 0 0 0 0 0 0 21 406 1069 1326 1431 1710 1848 1829 2042 2387 2599 2558 2601 2790 2465 2416 1940 1812 1520 1289 1060 1366 1762 1848 1777
0 0 0 0 0 0 0 0 0 0 0 0 0 0 0 0 0 0 0 0 20 257 727 1209 1421 1516 1653 2265 2357 2662 2879 2910 2888 1700 2163 2092 1894 1746 1305 1249 1164 1468 1768 2032
0 0 0 0 0 0 0 0 0 0 0 0 0 0 0 0 0 0 0 0 50 130 153 279 630 1197 1471 1559 1818 2714 2946 3083 3051 2843 2651 1626 1927 2027 1688 1546 1081 1257 1529 1645
0 0 0 0 0 0 0 0 0 0 0 0 0 0 0 0 0 0 0 0 0 49 252 611 409 457 565 576 1213 1836 2727 3332 3121 3120 3363 2422 2691 2181 1781 1619 2434 2391 2555 1829
0 0 0 0 0 0 0 0 0 0 0 0 0 0 0 0 0 0 0 0 0 67 130 358 744 771 1069 1067 841 937 2200 3056 3511 3446 3365 3811 3774 3349 2528 2525 2139 1918 1813 1860
0 0 0 0 0 0 0 0 0 0 0 0 0 0 0 0 0 0 0 0 7 149 407 611 789 692 845 949 1000 761 1315 2318 2823 3146 3238 3424 3708 4060 4233 4022 2461 2735 2216 1794
0 0 0 0 0 0 0 0 0 0 0 0 0 0 2 0 0 0 8 28 41 52 64 355 405 486 635 706 955 835 1119 1861 2481 2883 3305 3959 3712 3253 3038 3402 2678 2527 2385 2625
0 0 0 0 0 0 0 0 0 0 0 0 0 0 0 0 0 0 0 0 34 77 90 270 507 549 740 655 948 988 1248 1810 2325 2701 2931 3346 3828 3657 3244 3689 3697 2799 3527 2534
0 0 0 0 0 0 0 0 0 3 0 0 1 3 3 4 0 0 0 6 40 136 116 237 485 529 755 671 813 1043 1172 1689 1823 2422 2585 2440 2971 2811 3444 3528 3259 3650 3383 3310
0 0 0 0 0 0 0 0 0 0 0 0 0 0 18 0 0 3 6 1 40 113 194 263 378 560 726 743 751 1006 961 1216 1750 1985 2270 2942 2950 2837 2782 3025 3131 3158 3301 3820
0 0 0 0 0 0 0 0 0 0 0 6 1 0 0 0 0 0 0 0 25 216 447 560 658 823 866 948 986 1037 1055 1132 1256 1434 1712 1711 1606 2484 2682 2886 2874 2883 2739 2875
0 0 0 0 0 0 0 0 0 0 0 0 0 0 4 7 9 0 131 202 369 322 306 378 446 714 1013 1133 1129 1065 1176 1207 1258 1402 1305 1322 1508 1425 1676 2436 2746 2597 2746 2740
0 0 0 0 0 0 0 0 0 0 0 0 0 0 2 0 0 5 181 187 302 258 209 315 582 805 1095 1207 1383 1114 1012 954 1009 1207 1283 1378 1433 1453 2007 1773 2377 2595 2686 2592
0 0 0 0 0 0 0 0 0 0 0 0 0 0 0 0 0 157 247 228 157 127 230 390 720 948 1124 1275 1368 1318 1170 1155 1137 1226 1339 1307 1042 1240 1626 2036 1707 2346 2723 2662
0 0 0 0 0 0 0 0 0 0 0 0 0 0 42 82 106 139 181 95 27 40 146 514 556 694 856 1170 854 858 1183 1099 1105 1256 1215 1070 898 915 1014 1228 1542 1928 2189 2331
0 0 0 0 0 0 0 0 0 0 0 0 1 34 95 108 116 196 70 28 73 196 363 494 511 693 935 1209 1072 1106 968 1005 1019 1169 1300 1187 622 805 1004 1089 1202 1148 1458 1707
0 0 0 0 0 0 0 0 0 0 0 1 40 94 76 68 117 44 70 107 109 225 465 643 672 791 1040 1037 995 931 929 828 1010 1081 1113 1148 988 761 853 758 849 1041 1074 1079
0 0 0 0 0 0 0 0 0 7 14 77 102 88 65 62 79 40 60 178 207 318 515 765 911 732 986 823 420 535 743 596 654 705 745 721 924 801 683 688 629 669 749 672
0 0 0 1 4 0 17 57 124 115 34 100 74 62 73 107 130 102 243 380 401 417 669 911 914 942 864 523 101 253 303 253 176 304 341 488 681 635 607 563 440 513 478 446
13 12 12 15 23 16 57 97 82 51 154 111 113 148 202 290 333 398 486 427 522 651 799 915 803 805 600 341 293 265 234 249 264 272 319 409 321 98 426 583 157 151 290 318
6 17 54 81 64 48 54 51 66 205 259 154 257 285 338 475 483 408 392 619 434 554 814 973 829 710 296 117 268 233 319 363 258 250 156 231 302 259 199 576 393 433 406 304
3 32 42 73 121 76 16 23 48 109 240 346 325 342 496 451 310 454 618 470 700 970 894 1042 629 410 156 167 210 436 403 274 277 224 254 257 270 287 302 399 508 520 242 129
65 96 92 67 82 71 40 41 61 190 436 493 630 562 438 514 600 713 697 733 652 1010 890 832 493 170 45 149 106 181 324 193 192 253 159 169 184 209 394 62 19 233 343 145
76 120 91 115 110 102 72 64 134 182 638 791 482 509 688 780 780 748 729 776 651 679 898 762 465 102 99 75 70 132 216 200 123 82 48 46 43 83 147 32 24 2 0 0
33 22 55 54 84 44 29 118 386 653 665 503 592 700 758 742 766 734 702 784 771 550 1021 694 649 148 181 83 97 163 281 187 133 74 4 6 16 13 6 10 0 0 0 0

GFSCGP_con_mucape_123.txt.gz
CAPE
0 0 0 0 0 0 0 0 0 0 0 0 0 0 0 0 0 0 0 108 376 536 1314 2231 2087 2078 2269 2155 2057 2862 3146 4480 3478 2723 2518 2309 1752 1640 1357 1207 2485 2795 2063 2918
0 0 0 0 0 0 0 0 0 0 0 0 0 0 0 0 0 0 0 187 790 1232 1511 1942 2022 2143 2272 2455 2529 2546 2944 3835 3575 2988 2945 2797 2764 1836 1707 1287 2181 2008 2498 2480
0 0 0 0 0 0 0 0 0 0 0 0 0 0 0 0 0 0 0 58 377 836 1603 1775 2008 2214 2197 2454 2637 2969 3372 3788 3960 3941 3340 3507 3190 3174 2402 1910 1438 1891 2269 2824
0 0 0 0 0 0 0 0 0 0 0 1 0 12 7 0 0 0 6 15 226 371 512 1071 1656 1844 1897 2592 2748 3079 3734 3800 4122 4275 3550 2751 2050 2538 2610 2489 1744 1570 2804 2948
0 0 0 0 0 0 0 0 0 0 0 0 0 0 46 3 0 1 14 3 4 152 662 537 584 808 858 1013 1575 2159 4087 4698 4270 4418 4020 2935 2646 1637 2478 1436 2335 2836 2888 3039
0 0 0 0 0 0 0 0 0 0 0 2 5 0 13 41 12 9 1 1 0 44 270 775 970 1128 1128 1142 1079 1037 1974 3457 4706 4041 4230 4553 4703 3636 2394 2533 2074 2189 1800 2474
0 0 0 0 0 0 0 0 0 12 46 62 2 0 0 0 0 0 0 0 0 28 282 480 703 715 898 932 1098 877 1314 2198 3016 3914 3877 4363 4500 4361 3632 3417 2516 734 2052 1971
0 0 0 0 0 0 0 0 0 0 7 3 2 0 35 0 0 0 0 0 0 2 0 121 382 570 686 709 892 1065 1327 1876 2318 2499 3303 4506 4001 3771 3891 3836 3215 2737 2452 2440
0 0 0 0 0 0 0 0 0 0 0 0 5 17 8 0 0 0 0 0 6 20 56 62 344 519 686 799 696 1065 1250 1695 2073 2227 2706 4090 4391 4751 4099 4139 3802 2940 3099 3260
0 0 0 0 0 0 0 0 0 0 4 3 19 11 39 48 16 11 6 5 1 0 92 92 106 207 540 718 739 759 963 1277 1662 2039 2311 2746 3170 3457 4524 4052 3896 3749 3694 3800
0 0 0 0 0 0 0 0 1 0 0 0 9 13 14 4 14 0 0 0 2 0 47 200 475 539 693 686 691 828 949 1185 1322 1619 2038 2229 3011 3618 3416 3726 3686 3570 3728 3647
0 0 0 0 1 0 0 0 0 3 0 12 6 0 15 0 0 0 0 0 0 127 220 274 345 373 519 795 945 998 1123 1389 1492 1579 1698 1723 1944 2265 3069 3115 3549 3548 3590 3172
0 0 0 0 0 0 0 0 0 0 0 0 0 0 25 14 17 6 0 3 115 211 241 141 165 373 626 824 1010 1029 1100 1282 1341 1308 1391 1393 1432 1596 1890 2292 3012 2967 3248 3451
0 0 0 0 2 0 2 0 0 0 0 1 2 0 0 4 1 0 0 26 156 230 113 86 182 575 775 897 1085 1164 1373 1231 1310 1306 1413 1366 1389 1554 1608 2022 2513 2443 2925 3037
0 0 0 0 0 0 0 0 0 0 0 0 0 0 0 7 12 1 19 81 158 167 45 68 147 571 618 783 1027 1444 1365 1361 1386 1343 1336 1447 1661 1658 1559 1854 2115 2530 2849 3103
0 0 0 0 0 0 0 0 0 0 0 0 0 0 7 42 54 51 71 127 104 64 78 110 311 499 628 822 1081 1208 1185 1398 1286 1221 1324 1565 1630 1514 1069 1031 1691 2945 2549 2775
0 0 0 0 0 0 0 0 0 0 0 0 0 3 33 46 68 91 114 42 55 78 26 64 275 524 741 945 1221 1305 1159 1075 1217 1200 1330 1324 1436 1324 958 755 928 1215 1739 1411
0 1 0 0 0 0 0 0 0 0 0 0 0 11 77 29 42 84 67 44 130 121 36 89 268 458 859 1011 1312 1167 988 962 1056 1145 1007 1112 1131 1182 1187 747 822 793 1023 1219
0 1 0 0 0 0 0 15 9 1 13 15 38 79 51 50 54 57 113 153 236 244 262 344 420 646 939 1183 1172 931 791 626 576 653 625 560 890 994 881 919 1042 865 948 789
0 3 0 0 5 10 22 110 42 6 0 111 92 76 68 79 97 116 175 120 165 212 511 581 704 766 1098 1333 1039 499 335 388 378 428 572 779 466 824 781 787 956 1117 1122 964
32 17 12 19 13 16 17 159 68 29 171 220 126 364 161 163 430 238 191 144 208 390 452 690 918 1078 1156 1062 852 551 422 184 374 313 473 520 610 656 589 996 855 1099 1032 1058
28 57 62 88 104 72 145 126 138 301 268 208 173 171 196 500 207 234 212 296 379 459 629 681 938 992 1085 914 672 542 511 252 406 702 345 381 471 595 564 1063 1017 1081 948 456
8 13 19 63 175 227 122 90 72 26 37 69 212 234 313 565 263 252 312 410 519 611 690 947 1066 1028 949 633 519 227 253 142 409 571 492 407 446 469 740 642 794 1181 918 468
67 121 75 92 42 61 106 200 73 94 186 160 203 458 338 326 455 474 526 570 622 802 846 1022 1049 890 689 396 147 91 55 72 202 380 482 349 456 264 866 605 137 734 1062 879
73 48 145 179 194 169 181 161 205 155 200 294 676 763 353 472 548 537 574 677 697 883 945 1116 1081 969 539 351 124 28 91 126 141 344 145 225 147 266 294 149 17 4 6 30
86 93 65 96 156 135 131 114 90 176 183 319 506 519 531 550 666 609 637 741 777 846 797 1022 967 361 119 155 71 79 152 129 184 261 76 58 44 262 53 129 4 0 0 0

GFSCGP_con_mucape_126.txt.gz
CAPE
0 0 0 0 0 0 0 0 0 0 0 0 0 0 0 0 0 0 0 3 123 341 1276 2034 1994 2370 2524 2673 3255 3841 3753 4137 3368 3211 2695 2594 2065 2048 1849 2173 3086 3177 2860 3020
0 0 0 0 0 0 0 0 0 0 0 0 0 0 0 0 0 0 0 206 422 858 2242 2146 2112 2276 2637 2742 3270 3632 4022 4140 3234 3173 3149 2885 2628 2192 1929 1959 2879 2987 3100 2762
0 0 0 0 0 0 0 0 0 0 0 0 0 0 0 0 0 0 1 165 690 1321 1749 2012 2032 2401 2338 2826 3205 3621 3992 4184 3863 3852 3612 3588 3398 3267 2569 2371 1828 2302 2736 2506
0 0 0 0 0 0 0 0 0 0 0 0 0 12 27 0 0 3 33 139 247 667 1403 1862 2140 2555 2444 2862 3253 4020 3847 4094 4243 3918 3717 3302 2967 3151 2724 2869 2278 2192 2056 2503
0 0 0 0 0 0 0 0 0 0 0 0 0 0 0 0 0 8 43 23 93 518 432 761 1341 1653 1849 2168 2978 3715 4704 4615 4245 4010 3556 3856 3317 3016 2818 2055 3915 3798 2232 2112
0 0 0 0 0 0 0 0 0 0 0 1 2 0 29 16 5 15 34 11 0 71 600 741 909 1113 1243 896 905 1265 3317 4536 4601 4510 4256 3859 3985 3192 2506 1815 2891 2558 2863 2619
0 0 0 0 0 0 0 0 0 3 4 22 4 0 172 11 15 51 37 14 5 13 401 916 867 934 912 977 1025 1103 2554 3439 4486 4724 4538 4636 4258 4017 3805 3377 3380 2461 1524 2036
0 1 0 0 0 0 0 0 0 0 0 7 0 0 112 20 1 4 15 1 0 19 55 37 274 616 610 634 776 1283 2376 2938 3121 3200 4241 4433 4217 4128 3820 3395 3095 3002 2215 946
0 1 0 0 0 0 0 0 0 0 0 0 3 96 70 10 7 0 0 0 0 13 61 53 5 265 565 746 936 982 1987 2742 3001 3137 3571 4143 4203 4433 3854 3843 3772 3215 2791 2186
0 0 0 0 0 0 0 0 0 0 3 7 26 11 154 86 32 4 0 3 1 0 0 12 116 395 555 704 1176 1307 1547 2365 2457 2414 3092 2946 3662 3906 4219 4198 3946 3554 3045 2858
0 0 0 0 0 0 0 0 0 0 3 1 0 58 176 26 9 0 0 0 0 0 2 66 207 392 801 504 847 1322 1426 2109 2355 2426 2435 3011 3050 3135 3701 3735 4140 3749 3471 3262
0 0 0 0 1 0 0 0 0 0 0 11 3 1 11 0 0 0 0 0 0 46 147 167 345 438 502 904 1004 1095 1640 1744 2195 2462 2541 2289 2384 2446 2599 2988 3307 3233 3349 3164
0 0 0 0 0 0 0 0 0 0 0 0 0 0 9 4 1 3 0 0 191 203 118 207 586 597 767 979 1243 1332 1572 1713 1821 1776 1866 1941 1921 1947 2028 2130 2573 3226 2723 2975
0 0 0 0 0 0 0 5 2 0 0 0 0 3 5 1 0 2 0 26 56 315 243 328 652 950 1093 1240 1367 1423 1717 1527 1662 1663 1480 1795 1825 1726 1715 1836 2143 2385 2894 2736
0 0 0 0 0 0 0 0 0 0 0 0 0 0 0 7 3 0 9 17 29 313 240 389 409 765 1107 1184 1164 1343 1528 1766 1697 1600 1447 1412 1704 1502 1579 1959 1797 1870 2208 2600
0 0 0 0 0 0 0 0 0 0 0 0 0 0 0 41 22 49 56 35 202 201 88 219 220 376 648 994 1285 1180 1508 1541 1468 1430 1430 1505 1475 1654 1550 1528 1575 1406 1699 2073
7 0 0 0 0 0 0 0 0 0 0 0 0 0 2 58 21 3 0 0 25 62 131 413 526 545 836 942 1171 1441 1461 1351 1288 1362 1562 1557 1298 1381 1409 1490 1412 1206 1405 1820
0 0 0 0 0 0 0 0 0 0 0 0 0 0 0 33 0 0 221 55 123 155 332 498 672 812 989 1108 1273 1513 1396 1204 1114 1262 1274 1275 1220 1088 1373 1308 1484 1196 999 1365
0 0 0 4 0 0 0 0 22 18 0 2 0 0 0 29 0 71 41 27 51 340 506 882 979 972 1376 1261 1647 1441 1304 1112 960 930 902 992 933 1081 1134 1241 1364 1368 1227 921
0 65 6 7 2 0 0 1 35 27 3 121 58 111 111 107 41 166 641 370 420 624 936 839 969 1116 974 1488 1470 1541 1207 683 571 559 650 414 442 788 977 1252 1173 952 1238 991
44 37 22 24 9 1 4 14 97 57 158 211 130 151 92 57 191 313 200 122 517 702 885 1007 1113 806 1012 1234 1361 1304 1091 757 527 469 405 231 512 486 1006 1134 1429 1252 1166 1481
52 159 101 130 127 56 175 184 171 562 140 72 30 55 332 309 398 469 570 688 704 768 988 1273 1062 1159 1365 1317 1263 1051 769 636 358 275 117 50 177 886 905 1242 1197 1283 822 505
13 66 34 89 37 241 78 202 198 121 216 87 121 94 125 347 284 131 62 717 867 948 1017 1229 1010 1152 1418 1209 933 604 366 226 136 30 1 23 163 557 1133 955 968 1006 902 394
24 42 47 90 37 144 179 37 125 108 31 86 68 153 207 406 322 568 766 906 1035 1167 1278 952 964 1186 1302 752 530 403 103 10 7 17 23 62 115 431 533 895 539 794 286 471
0 98 12 26 185 348 31 65 49 46 63 37 78 102 62 362 138 142 922 514 821 1328 1304 1074 1355 1239 1122 506 316 36 21 20 40 0 9 70 147 472 649 94 0 48 5 71
13 34 25 37 157 149 46 17 7 3 39 110 109 207 404 161 492 755 844 773 1237 868 839 811 961 960 602 450 139 110 23 41 58 1 46 64 71 173 290 379 22 6 0 0

GFSCGP_con_mucape_129.txt.gz
CAPE
0 0 0 0 0 0 0 0 0 0 0 0 0 0 0 0 0 0 2 1028 1200 1195 1929 2067 1862 1561 1561 1635 1975 2060 2092 2014 2216 2282 1992 1841 1600 1733 1590 1491 1866 1769 1815 1987
0 0 0 0 0 0 0 0 0 0 0 0 0 0 0 0 0 5 502 843 1922 2062 2030 2146 2144 2017 2016 2075 2540 2361 2667 2291 2076 2258 1925 1901 1842 1494 1729 1325 1335 2153 1992 1718
0 0 0 0 0 0 0 0 0 0 0 0 0 0 0 0 0 80 586 1193 1909 2030 1988 1916 2152 1990 2329 2436 2786 2434 2712 2380 2312 2225 2344 2191 2232 1971 1702 1433 1253 2263 2213 1947
0 0 0 0 0 0 0 0 0 0 0 0 0 0 0 0 11 72 437 692 1442 1837 1979 1958 1941 2208 2428 2474 2349 2737 2910 2925 2249 2511 2611 2513 2187 2154 2075 1831 1368 1286 2183 2219
0 0 0 0 0 0 0 0 0 0 0 0 0 0 0 0 6 43 160 381 732 1147 1500 1862 1860 2160 2550 2629 2659 2773 2937 3131 3181 2567 2839 2831 2644 2420 2325 2425 2220 1976 1617 2062
0 0 0 0 0 0 0 0 0 0 0 0 0 4 7 0 28 142 191 318 370 577 622 769 900 1278 1236 1758 2356 3593 3166 3048 3216 3331 3061 2612 2480 2816 2619 2377 2288 1992 2104 1786
0 0 0 0 0 0 0 0 0 0 0 0 0 2 1 24 70 36 21 42 398 521 562 825 1001 858 982 931 832 789 1424 2435 3809 3694 3358 3260 2958 2852 2872 2673 2271 1980 2137 2020
0 0 0 0 0 0 0 0 0 0 0 0 0 0 59 46 58 56 27 8 62 678 805 915 888 669 597 848 915 964 1270 1383 1735 2282 3298 3850 3785 3436 3082 2955 2682 2347 2346 2514
0 0 0 0 0 0 0 0 0 0 0 0 15 41 32 10 12 11 0 14 48 83 45 14 297 410 547 573 566 697 1389 1584 1726 1893 2112 2390 3009 3231 3434 3567 3243 2887 2603 2394
0 0 0 0 0 0 0 0 0 0 0 0 12 39 20 9 0 0 0 0 0 0 0 35 117 399 395 476 472 631 661 1401 1563 1828 2131 2271 2278 2283 2635 2792 2846 3073 3051 2803
0 0 0 0 0 0 0 0 0 0 0 0 0 103 87 19 18 9 6 0 0 0 52 44 49 61 125 278 445 512 619 839 1374 1602 1417 1366 1537 1774 1924 2188 2657 2978 2980 3011
0 0 0 0 0 0 0 0 0 0 0 0 0 6 0 11 0 4 1 0 32 38 28 17 44 88 221 302 367 580 720 871 1224 1332 1647 1690 1729 1584 1572 1643 1760 2113 2382 2534
0 0 0 0 0 0 0 0 0 0 0 0 0 0 2 1 0 0 0 31 54 30 27 121 31 102 232 337 667 633 841 1073 896 1189 1142 968 973 1159 1356 1278 1241 1313 1577 1962
0 0 0 0 0 0 0 0 8 0 0 0 0 0 0 7 24 9 7 6 0 23 6 69 37 116 225 514 752 771 816 960 1159 1022 959 981 967 966 856 909 1073 1154 1156 1364
0 0 0 0 0 0 0 0 0 0 0 0 0 0 0 1 8 2 8 31 36 52 64 35 23 17 48 68 266 609 671 1218 1039 1013 884 812 857 951 970 840 896 1064 1205 1052
0 0 0 0 0 0 0 0 0 0 0 0 0 0 0 0 0 0 0 0 6 19 91 71 56 51 39 114 328 362 722 932 827 738 786 856 926 1009 937 869 780 941 1032 904
0 0 0 0 0 0 0 0 0 0 0 0 0 0 19 0 0 0 0 1 7 9 21 17 46 167 191 258 296 420 801 955 861 700 607 814 721 835 836 792 762 880 1049 861
0 0 0 0 0 0 0 0 0 0 0 0 0 0 7 2 2 0 0 0 0 0 11 137 274 310 282 514 556 937 877 832 733 652 590 687 617 493 632 671 711 793 852 838
0 0 0 0 0 0 0 0 1 1 0 17 19 13 37 85 38 42 23 19 28 35 102 211 275 256 500 329 606 940 882 644 732 614 411 300 230 237 238 236 427 571 650 714
0 0 0 0 0 0 0 0 0 2 0 46 27 5 0 26 38 247 106 21 0 221 261 300 524 474 352 718 646 617 574 577 562 414 220 134 133 126 142 116 119 258 474 631
0 0 0 0 0 0 18 3 17 3 32 0 0 0 0 0 7 58 122 63 243 230 431 498 557 532 534 740 749 770 667 534 446 293 90 0 0 0 66 82 99 270 410 537
22 57 8 13 12 1 17 26 64 24 11 21 16 28 169 154 202 126 62 29 14 235 162 407 559 505 578 717 787 552 409 463 263 124 2 0 0 6 17 48 82 250 286 205
3 16 47 71 82 46 27 49 11 18 57 0 2 70 129 65 300 174 68 58 31 212 586 810 601 525 588 580 593 377 379 226 51 15 0 4 0 4 10 54 89 131 159 273
54 17 20 0 75 73 58 9 19 0 0 0 0 29 74 69 393 180 99 58 36 196 102 822 721 704 638 577 487 372 259 144 46 0 0 15 7 26 69 39 107 7 36 84
2 0 0 15 35 11 39 26 3 7 10 19 45 134 160 387 476 177 48 32 66 48 288 758 612 558 553 424 403 344 305 133 11 0 0 15 3 35 58 53 35 0 0 0
0 2 0 8 31 7 9 16 0 0 0 42 53 166 263 160 170 170 177 298 189 295 495 528 561 522 427 431 289 119 10 0 8 10 0 3 0 30 62 43 54 14 3 0